Torna al catalogo

GIOVE-A

AttivoNavigazioneMEO
NORAD 28922·PAYLOAD·🇪🇺 EU

Lanciato Dec 28, 2005 da Baikonur Cosmodrome

Loading…

Prossimi Passaggi (prossime 24 ore)

TLE

AggiornatoSource: Space-Track

Epoca: Sep 13, 2026, 22:24 UTC

1 28922U 05051A   26256.93390806 -.00000109  00000-0  00000+0 0  9993
2 28922  58.9177 352.2662 0022673 149.0936 257.6115  1.69329649128210

Traccia GIOVE-A in tempo reale con AllMySat

Download on the App Store